Погода в Верее

Россия / Московская область     55°20′36″N   36°11′08″E
темп.,
°C
ветер,
м/с
пор.,
м/с
влажн.,
%
обл.,
%
осадки,
мм/ч
давл.,
гПа
погр.,
м
15 апреля, чт
чт1500:00+11всв2268100 0.0 101626
03:00+9в2268100 0.0 101621
06:00+9с3469100 0.0 101564
09:00+12юв1361100 0.0 1016323
12:00+16всв3550100 0.0 1015701
15:00+18всв4846100 0.0 10141493
18:00+16всв41050100 0.0 1014506
21:00+13вюв3970100 0.9 1016348
16 апреля, пт
пт1600:00+11всв51180100 0.4 1016506
03:00+10всв41192100 0.4 1017472
06:00+9всв41092100 0.0 1018457
09:00+10всв41088100 0.1 1019606
12:00+12в5980100 0.4 1019890
15:00+14всв5970100 1.3 10191264
18:00+13всв61169100 0.1 1019948
21:00+11всв61475100 0.2 1020866
17 апреля, сб
сб1700:00+10всв41081100 0.6 1021726
03:00+9всв51087100 0.6 1021498
06:00+7всв5119073 0.0 1022528
09:00+9всв5108066 0.0 1023626
12:00+13всв696127 0.0 10221018
15:00+15всв69529 0.0 10211350
18:00+14всв6115311 0.0 10211276
21:00+10всв5136177 0.0 1022772
18 апреля, вс
вс1800:00+8св5135937 0.0 1023608
03:00+6св412622 0.0 1023517
06:00+5св5136792 0.0 1023536
09:00+8св5115851 0.0 1023670
12:00+12всв69445 0.0 10231356
15:00+14всв574154 0.0 10231902
18:00+12всв484499 0.0 1024851
21:00+8св3115949 0.0 1025336
19 апреля, пн
пн1900:00+5св3107276 0.0 1026294
03:00+4св288028 0.0 1026186
06:00+4св39805 0.0 1027251
09:00+9всв47647 0.0 1027693
12:00+12всв575092 0.0 10261880
15:00+11всв4656100 0.1 10261422
18:00+9в3762100 0.0 1026642
21:00+8в3964100 0.0 1027443